| time (UTC) | temp C | wind direction | speed KPH | gust KPH | rain 1hr cm | rain 24hr cm | rain mn cm | humidity % | barometer mb |
| 20260831011605 | 28 | 0 | 0.0 | 0.0 | 0.00 | 0.00 | 0.00 | 71 | 1020.2 |
| 20260831011052 | 28 | 0 | 0.0 | 0.0 | 0.00 | 0.00 | 0.00 | 71 | 1020.1 |
| 20260831010552 | 28 | 0 | 0.0 | 0.0 | 0.00 | 0.00 | 0.00 | 71 | 1020.2 |
| 20260831010128 | 28 | 0 | 0.0 | 0.0 | 0.00 | 0.00 | 0.00 | 70 | 1020.2 |
| 20260831005552 | 28 | 0 | 0.0 | 0.0 | 0.00 | 0.00 | 0.00 | 70 | 1020.0 |
| 20260831005049 | 28 | 0 | 0.0 | 0.0 | 0.00 | 0.00 | 0.00 | 70 | 1020.1 |
| 20260831004611 | 28 | 0 | 0.0 | 3.2 | 0.00 | 0.00 | 0.00 | 69 | 1020.1 |
| 20260831004058 | 28 | 0 | 0.0 | 3.2 | 0.00 | 0.00 | 0.00 | 69 | 1020.1 |
| 20260831003551 | 29 | 0 | 0.0 | 3.2 | 0.00 | 0.00 | 0.00 | 69 | 1020.0 |
| 20260831003108 | 29 | 0 | 0.0 | 1.6 | 0.00 | 0.00 | 0.00 | 68 | 1019.9 |
| 20260831002549 | 29 | 0 | 0.0 | 0.0 | 0.00 | 0.00 | 0.00 | 68 | 1020.0 |
| 20260831002051 | 29 | 0 | 0.0 | 0.0 | 0.00 | 0.00 | 0.00 | 68 | 1019.8 |
| 20260831001602 | 30 | 0 | 0.0 | 0.0 | 0.00 | 0.00 | 0.00 | 67 | 1019.9 |
| 20260831001049 | 30 | 0 | 0.0 | 1.6 | 0.00 | 0.00 | 0.00 | 67 | 1019.8 |
| 20260831000549 | 30 | 0 | 0.0 | 1.6 | 0.00 | 0.00 | 0.00 | 66 | 1019.8 |
| 20260831000108 | 30 | 0 | 0.0 | 6.4 | 0.00 | 0.00 | 0.00 | 66 | 1019.9 |
| 20260830235552 | 30 | 0 | 0.0 | 6.4 | 0.00 | 0.00 | 0.00 | 65 | 1019.9 |
| 20260830235052 | 30 | 360 | 1.6 | 6.4 | 0.00 | 0.00 | 0.00 | 65 | 1019.8 |
| 20260830234608 | 30 | 0 | 1.6 | 6.4 | 0.00 | 0.00 | 0.00 | 65 | 1019.9 |
| 20260830234051 | 31 | 0 | 1.6 | 6.4 | 0.00 | 0.00 | 0.00 | 64 | 1019.9 |
| 20260830233552 | 31 | 0 | 1.6 | 6.4 | 0.00 | 0.00 | 0.00 | 64 | 1019.9 |
| 20260830233106 | 31 | 360 | 1.6 | 6.4 | 0.00 | 0.00 | 0.00 | 63 | 1019.8 |
| 20260830232551 | 31 | 360 | 1.6 | 6.4 | 0.00 | 0.00 | 0.00 | 63 | 1019.8 |
| 20260830232049 | 31 | 360 | 1.6 | 8.0 | 0.00 | 0.00 | 0.00 | 63 | 1019.9 |
| 20260830231602 | 31 | 360 | 3.2 | 8.0 | 0.00 | 0.00 | 0.00 | 62 | 1019.8 |
| 20260830231052 | 31 | 360 | 0.0 | 9.7 | 0.00 | 0.00 | 0.00 | 62 | 1019.7 |
| 20260830230552 | 31 | 0 | 3.2 | 9.7 | 0.00 | 0.00 | 0.00 | 62 | 1019.8 |
| 20260830230106 | 31 | 360 | 1.6 | 6.4 | 0.00 | 0.00 | 0.00 | 62 | 1019.8 |
| 20260830225552 | 31 | 0 | 1.6 | 6.4 | 0.00 | 0.00 | 0.00 | 62 | 1019.8 |
| 20260830225052 | 32 | 0 | 0.0 | 3.2 | 0.00 | 0.00 | 0.00 | 61 | 1019.7 |
| 20260830224608 | 32 | 0 | 0.0 | 6.4 | 0.00 | 0.00 | 0.00 | 61 | 1019.8 |
| 20260830224049 | 32 | 0 | 0.0 | 6.4 | 0.00 | 0.00 | 0.00 | 59 | 1019.6 |
| 20260830223552 | 32 | 360 | 0.0 | 4.8 | 0.00 | 0.00 | 0.00 | 58 | 1019.7 |
| 20260830223105 | 32 | 0 | 0.0 | 4.8 | 0.00 | 0.00 | 0.00 | 58 | 1019.8 |
| 20260830222552 | 32 | 0 | 0.0 | 4.8 | 0.00 | 0.00 | 0.00 | 56 | 1019.9 |
| 20260830222052 | 32 | 0 | 1.6 | 4.8 | 0.00 | 0.00 | 0.00 | 56 | 1019.8 |
| 20260830221608 | 33 | 0 | 0.0 | 3.2 | 0.00 | 0.00 | 0.00 | 56 | 1019.7 |
| 20260830221052 | 33 | 0 | 0.0 | 3.2 | 0.00 | 0.00 | 0.00 | 56 | 1019.8 |
| 20260830220552 | 33 | 0 | 0.0 | 3.2 | 0.00 | 0.00 | 0.00 | 57 | 1019.8 |
| 20260830220115 | 33 | 0 | 0.0 | 4.8 | 0.00 | 0.00 | 0.00 | 57 | 1019.9 |
| 20260830215556 | 32 | 0 | 1.6 | 4.8 | 0.00 | 0.00 | 0.00 | 56 | 1019.8 |
| 20260830215052 | 32 | 360 | 0.0 | 1.6 | 0.00 | 0.00 | 0.00 | 56 | 1019.8 |
| 20260830214606 | 32 | 0 | 0.0 | 3.2 | 0.00 | 0.00 | 0.00 | 57 | 1019.8 |
| 20260830214052 | 32 | 0 | 0.0 | 9.7 | 0.00 | 0.00 | 0.00 | 57 | 1019.9 |
| 20260830213554 | 32 | 0 | 0.0 | 9.7 | 0.00 | 0.00 | 0.00 | 56 | 1019.8 |
| 20260830213107 | 32 | 360 | 1.6 | 8.0 | 0.00 | 0.00 | 0.00 | 55 | 1019.8 |
| 20260830212551 | 32 | 360 | 1.6 | 9.7 | 0.00 | 0.00 | 0.00 | 57 | 1019.9 |
| 20260830212053 | 32 | 0 | 1.6 | 9.7 | 0.00 | 0.00 | 0.00 | 56 | 1019.9 |
| 20260830211602 | 32 | 360 | 1.6 | 9.7 | 0.00 | 0.00 | 0.00 | 56 | 1019.9 |
| 20260830211052 | 32 | 360 | 4.8 | 12.9 | 0.00 | 0.00 | 0.00 | 56 | 1020.0 |
| 20260830210551 | 32 | 360 | 1.6 | 12.9 | 0.00 | 0.00 | 0.00 | 56 | 1020.0 |
| 20260830210100 | 32 | 360 | 0.0 | 6.4 | 0.00 | 0.00 | 0.00 | 57 | 1020.0 |
| 20260830205551 | 32 | 0 | 0.0 | 6.4 | 0.00 | 0.00 | 0.00 | 59 | 1020.0 |
| 20260830205051 | 32 | 360 | 0.0 | 6.4 | 0.00 | 0.00 | 0.00 | 59 | 1019.9 |
| 20260830204605 | 32 | 360 | 1.6 | 6.4 | 0.00 | 0.00 | 0.00 | 59 | 1020.1 |
| 20260830204052 | 32 | 360 | 1.6 | 4.8 | 0.00 | 0.00 | 0.00 | 59 | 1020.1 |
| 20260830203552 | 32 | 0 | 0.0 | 3.2 | 0.00 | 0.00 | 0.00 | 58 | 1020.1 |
| 20260830203105 | 32 | 0 | 0.0 | 3.2 | 0.00 | 0.00 | 0.00 | 58 | 1020.3 |
| 20260830202552 | 32 | 360 | 1.6 | 4.8 | 0.00 | 0.00 | 0.00 | 59 | 1020.4 |
| 20260830202048 | 32 | 0 | 0.0 | 4.8 | 0.00 | 0.00 | 0.00 | 59 | 1020.4 |
| 20260830201603 | 32 | 0 | 0.0 | 6.4 | 0.00 | 0.00 | 0.00 | 60 | 1020.4 |
| 20260830201054 | 32 | 360 | 0.0 | 6.4 | 0.00 | 0.00 | 0.00 | 59 | 1020.5 |
| 20260830200551 | 32 | 360 | 0.0 | 9.7 | 0.00 | 0.00 | 0.00 | 59 | 1020.6 |
| 20260830200100 | 32 | 0 | 0.0 | 9.7 | 0.00 | 0.00 | 0.00 | 59 | 1020.6 |
| 20260830195552 | 32 | 360 | 1.6 | 9.7 | 0.00 | 0.00 | 0.00 | 59 | 1020.6 |
| 20260830195054 | 32 | 360 | 3.2 | 9.7 | 0.00 | 0.00 | 0.00 | 59 | 1020.6 |
| 20260830194614 | 32 | 360 | 1.6 | 6.4 | 0.00 | 0.00 | 0.00 | 60 | 1020.8 |
| 20260830194052 | 32 | 360 | 1.6 | 6.4 | 0.00 | 0.00 | 0.00 | 62 | 1020.8 |
| 20260830193554 | 32 | 360 | 1.6 | 6.4 | 0.00 | 0.00 | 0.00 | 62 | 1020.8 |
| 20260830193105 | 32 | 360 | 0.0 | 4.8 | 0.00 | 0.00 | 0.00 | 61 | 1020.9 |
| 20260830192548 | 31 | 0 | 0.0 | 3.2 | 0.00 | 0.00 | 0.00 | 61 | 1021.0 |
| 20260830192050 | 31 | 360 | 0.0 | 6.4 | 0.00 | 0.00 | 0.00 | 61 | 1021.1 |
| 20260830191604 | 31 | 0 | 0.0 | 6.4 | 0.00 | 0.00 | 0.00 | 61 | 1021.2 |
| 20260830191049 | 31 | 360 | 1.6 | 4.8 | 0.00 | 0.00 | 0.00 | 63 | 1021.3 |
| 20260830190552 | 31 | 0 | 0.0 | 4.8 | 0.00 | 0.00 | 0.00 | 64 | 1021.3 |
| 20260830190104 | 31 | 360 | 0.0 | 4.8 | 0.00 | 0.00 | 0.00 | 63 | 1021.4 |
| 20260830185551 | 31 | 360 | 1.6 | 6.4 | 0.00 | 0.00 | 0.00 | 63 | 1021.5 |
| 20260830185053 | 31 | 0 | 1.6 | 8.0 | 0.00 | 0.00 | 0.00 | 64 | 1021.5 |
| 20260830184604 | 31 | 0 | 1.6 | 8.0 | 0.00 | 0.00 | 0.00 | 63 | 1021.6 |
| 20260830184051 | 31 | 360 | 3.2 | 9.7 | 0.00 | 0.00 | 0.00 | 64 | 1021.6 |
| 20260830183554 | 31 | 360 | 0.0 | 9.7 | 0.00 | 0.00 | 0.00 | 64 | 1021.7 |
| 20260830183101 | 31 | 360 | 4.8 | 9.7 | 0.00 | 0.00 | 0.00 | 64 | 1021.8 |
| 20260830182552 | 30 | 360 | 1.6 | 8.0 | 0.00 | 0.00 | 0.00 | 64 | 1022.1 |
| 20260830182052 | 30 | 360 | 1.6 | 9.7 | 0.00 | 0.00 | 0.00 | 64 | 1022.1 |
| 20260830181605 | 30 | 0 | 3.2 | 9.7 | 0.00 | 0.00 | 0.00 | 65 | 1022.1 |
| 20260830181054 | 30 | 360 | 3.2 | 6.4 | 0.00 | 0.00 | 0.00 | 65 | 1022.2 |
| 20260830180554 | 30 | 360 | 1.6 | 4.8 | 0.00 | 0.00 | 0.00 | 65 | 1022.3 |
| 20260830180104 | 30 | 360 | 1.6 | 4.8 | 0.00 | 0.00 | 0.00 | 66 | 1022.3 |
| 20260830175553 | 30 | 360 | 0.0 | 4.8 | 0.00 | 0.00 | 0.00 | 67 | 1022.5 |
| 20260830175053 | 30 | 0 | 1.6 | 4.8 | 0.00 | 0.00 | 0.00 | 67 | 1022.4 |
| 20260830174641 | 30 | 360 | 1.6 | 4.8 | 0.00 | 0.00 | 0.00 | 66 | 1022.5 |
| 20260830174053 | 30 | 360 | 1.6 | 4.8 | 0.00 | 0.00 | 0.00 | 68 | 1022.6 |
| 20260830173553 | 30 | 360 | 0.0 | 4.8 | 0.00 | 0.00 | 0.00 | 67 | 1022.6 |
| 20260830173104 | 30 | 360 | 0.0 | 4.8 | 0.00 | 0.00 | 0.00 | 68 | 1022.7 |
| 20260830172555 | 30 | 0 | 1.6 | 4.8 | 0.00 | 0.00 | 0.00 | 69 | 1022.8 |
| 20260830172054 | 30 | 0 | 0.0 | 8.0 | 0.00 | 0.00 | 0.00 | 68 | 1022.7 |
| 20260830171612 | 29 | 0 | 0.0 | 8.0 | 0.00 | 0.00 | 0.00 | 68 | 1022.8 |
| 20260830171054 | 29 | 360 | 1.6 | 6.4 | 0.00 | 0.00 | 0.00 | 69 | 1022.9 |
| 20260830170554 | 29 | 0 | 0.0 | 3.2 | 0.00 | 0.00 | 0.00 | 71 | 1023.0 |
| 20260830165553 | 29 | 360 | 1.6 | 4.8 | 0.00 | 0.00 | 0.00 | 71 | 1023.2 |
| 20260830165054 | 29 | 0 | 1.6 | 4.8 | 0.00 | 0.00 | 0.00 | 70 | 1023.2 |
| 20260830164605 | 29 | 360 | 1.6 | 6.4 | 0.00 | 0.00 | 0.00 | 70 | 1023.3 |
| 20260830164054 | 29 | 360 | 1.6 | 6.4 | 0.00 | 0.00 | 0.00 | 71 | 1023.3 |
| 20260830163554 | 29 | 360 | 1.6 | 4.8 | 0.00 | 0.00 | 0.00 | 70 | 1023.4 |
| 20260830163103 | 29 | 360 | 0.0 | 6.4 | 0.00 | 0.00 | 0.00 | 72 | 1023.4 |
| 20260830162554 | 29 | 360 | 1.6 | 8.0 | 0.00 | 0.00 | 0.00 | 71 | 1023.5 |
| 20260830162055 | 29 | 0 | 1.6 | 8.0 | 0.00 | 0.00 | 0.00 | 71 | 1023.5 |
| 20260830161617 | 28 | 360 | 0.0 | 4.8 | 0.00 | 0.00 | 0.00 | 73 | 1023.5 |
| 20260830161053 | 28 | 360 | 0.0 | 12.9 | 0.00 | 0.00 | 0.00 | 73 | 1023.6 |
| 20260830160558 | 28 | 0 | 3.2 | 12.9 | 0.00 | 0.00 | 0.00 | 73 | 1023.5 |
| 20260830160108 | 28 | 360 | 0.0 | 6.4 | 0.00 | 0.00 | 0.00 | 75 | 1023.6 |
| 20260830155554 | 28 | 0 | 1.6 | 6.4 | 0.00 | 0.00 | 0.00 | 75 | 1023.5 |
| 20260830155054 | 28 | 360 | 1.6 | 8.0 | 0.00 | 0.00 | 0.00 | 75 | 1023.6 |
| 20260830154606 | 28 | 360 | 1.6 | 8.0 | 0.00 | 0.00 | 0.00 | 75 | 1023.6 |
| 20260830154055 | 28 | 0 | 0.0 | 4.8 | 0.00 | 0.00 | 0.00 | 75 | 1023.6 |
| 20260830153554 | 28 | 0 | 0.0 | 8.0 | 0.00 | 0.00 | 0.00 | 74 | 1023.6 |
| 20260830153107 | 28 | 0 | 0.0 | 8.0 | 0.00 | 0.00 | 0.00 | 75 | 1023.6 |
| 20260830152553 | 27 | 0 | 1.6 | 8.0 | 0.00 | 0.00 | 0.00 | 77 | 1023.6 |
| 20260830152054 | 27 | 360 | 0.0 | 6.4 | 0.00 | 0.00 | 0.00 | 78 | 1023.7 |
| 20260830151627 | 27 | 360 | 0.0 | 4.8 | 0.00 | 0.00 | 0.00 | 81 | 1023.8 |
| 20260830151052 | 27 | 0 | 0.0 | 4.8 | 0.00 | 0.00 | 0.00 | 81 | 1023.8 |
| 20260830150552 | 27 | 0 | 1.6 | 4.8 | 0.00 | 0.00 | 0.00 | 80 | 1023.8 |
| 20260830150105 | 27 | 0 | 0.0 | 3.2 | 0.00 | 0.00 | 0.00 | 80 | 1023.9 |
| 20260830145554 | 27 | 360 | 0.0 | 4.8 | 0.00 | 0.00 | 0.00 | 80 | 1023.9 |
| 20260830145052 | 27 | 0 | 0.0 | 4.8 | 0.00 | 0.00 | 0.00 | 80 | 1024.0 |
| 20260830144607 | 27 | 360 | 0.0 | 1.6 | 0.00 | 0.00 | 0.00 | 81 | 1023.8 |
| 20260830144054 | 27 | 0 | 0.0 | 1.6 | 0.00 | 0.00 | 0.00 | 81 | 1023.8 |
| 20260830143552 | 27 | 0 | 0.0 | 3.2 | 0.00 | 0.00 | 0.00 | 80 | 1023.8 |
| 20260830143106 | 27 | 0 | 0.0 | 4.8 | 0.00 | 0.00 | 0.00 | 81 | 1023.8 |
| 20260830142552 | 27 | 360 | 0.0 | 4.8 | 0.00 | 0.00 | 0.00 | 80 | 1023.8 |
| 20260830142052 | 27 | 360 | 0.0 | 4.8 | 0.00 | 0.00 | 0.00 | 81 | 1023.8 |
| 20260830141613 | 26 | 360 | 0.0 | 6.4 | 0.00 | 0.00 | 0.00 | 81 | 1023.7 |
| 20260830141052 | 26 | 360 | 0.0 | 6.4 | 0.00 | 0.00 | 0.00 | 81 | 1023.7 |
| 20260830140551 | 26 | 360 | 1.6 | 6.4 | 0.00 | 0.00 | 0.00 | 82 | 1023.7 |
| 20260830140118 | 26 | 0 | 0.0 | 4.8 | 0.00 | 0.00 | 0.00 | 83 | 1023.7 |
| 20260830135552 | 26 | 0 | 0.0 | 4.8 | 0.00 | 0.00 | 0.00 | 84 | 1023.7 |
| 20260830135052 | 25 | 360 | 0.0 | 3.2 | 0.00 | 0.00 | 0.00 | 85 | 1023.7 |
| 20260830134607 | 25 | 360 | 0.0 | 3.2 | 0.00 | 0.00 | 0.00 | 85 | 1023.6 |
| 20260830134053 | 25 | 360 | 0.0 | 3.2 | 0.00 | 0.00 | 0.00 | 85 | 1023.6 |
| 20260830133552 | 25 | 0 | 0.0 | 3.2 | 0.00 | 0.00 | 0.00 | 86 | 1023.6 |
| 20260830133109 | 25 | 0 | 0.0 | 3.2 | 0.00 | 0.00 | 0.00 | 87 | 1023.8 |
| 20260830132552 | 25 | 360 | 0.0 | 3.2 | 0.00 | 0.00 | 0.00 | 87 | 1023.6 |
| 20260830132054 | 24 | 0 | 0.0 | 3.2 | 0.00 | 0.00 | 0.00 | 88 | 1023.6 |
| 20260830131611 | 24 | 0 | 0.0 | 3.2 | 0.00 | 0.00 | 0.00 | 88 | 1023.6 |
| 20260830131051 | 24 | 0 | 0.0 | 0.0 | 0.00 | 0.00 | 0.00 | 88 | 1023.6 |
| 20260830130551 | 23 | 0 | 0.0 | 0.0 | 0.00 | 0.00 | 0.00 | 89 | 1023.5 |
| 20260830130109 | 23 | 0 | 0.0 | 0.0 | 0.00 | 0.00 | 0.00 | 89 | 1023.4 |
| 20260830125552 | 23 | 0 | 0.0 | 1.6 | 0.00 | 0.00 | 0.00 | 90 | 1023.4 |
| 20260830125051 | 23 | 0 | 0.0 | 1.6 | 0.00 | 0.00 | 0.00 | 90 | 1023.3 |
| 20260830124606 | 23 | 0 | 0.0 | 0.0 | 0.00 | 0.00 | 0.00 | 91 | 1023.2 |
| 20260830124055 | 23 | 0 | 0.0 | 0.0 | 0.00 | 0.00 | 0.00 | 91 | 1023.1 |
| 20260830123555 | 22 | 0 | 0.0 | 0.0 | 0.00 | 0.00 | 0.00 | 92 | 1023.2 |
| 20260830123104 | 22 | 0 | 0.0 | 0.0 | 0.00 | 0.00 | 0.00 | 92 | 1023.1 |
| 20260830122555 | 22 | 0 | 0.0 | 0.0 | 0.00 | 0.00 | 0.00 | 92 | 1023.0 |
| 20260830122050 | 22 | 0 | 0.0 | 0.0 | 0.00 | 0.00 | 0.00 | 92 | 1023.1 |
| 20260830121611 | 22 | 0 | 0.0 | 0.0 | 0.00 | 0.00 | 0.00 | 92 | 1023.0 |
| 20260830121053 | 22 | 0 | 0.0 | 0.0 | 0.00 | 0.00 | 0.00 | 92 | 1022.9 |
| 20260830120551 | 22 | 0 | 0.0 | 0.0 | 0.00 | 0.00 | 0.00 | 92 | 1022.9 |
| 20260830120110 | 22 | 0 | 0.0 | 0.0 | 0.00 | 0.00 | 0.00 | 92 | 1022.9 |
| 20260830115551 | 21 | 0 | 0.0 | 0.0 | 0.00 | 0.00 | 0.00 | 92 | 1022.8 |
| 20260830115052 | 21 | 0 | 0.0 | 0.0 | 0.00 | 0.00 | 0.00 | 92 | 1022.7 |
| 20260830114604 | 21 | 0 | 0.0 | 0.0 | 0.00 | 0.00 | 0.00 | 92 | 1022.7 |
| 20260830114055 | 21 | 0 | 0.0 | 0.0 | 0.00 | 0.00 | 0.00 | 92 | 1022.7 |
| 20260830113552 | 21 | 0 | 0.0 | 0.0 | 0.00 | 0.00 | 0.00 | 91 | 1022.5 |
| 20260830113105 | 21 | 0 | 0.0 | 0.0 | 0.00 | 0.00 | 0.00 | 91 | 1022.6 |
| 20260830112552 | 21 | 0 | 0.0 | 0.0 | 0.00 | 0.00 | 0.00 | 91 | 1022.3 |
| 20260830112051 | 21 | 0 | 0.0 | 0.0 | 0.00 | 0.00 | 0.00 | 91 | 1022.4 |
| 20260830111606 | 21 | 0 | 0.0 | 0.0 | 0.00 | 0.00 | 0.00 | 91 | 1022.4 |
| 20260830111052 | 21 | 0 | 0.0 | 0.0 | 0.00 | 0.00 | 0.00 | 91 | 1022.3 |
| 20260830110552 | 21 | 0 | 0.0 | 0.0 | 0.00 | 0.00 | 0.00 | 91 | 1022.3 |
| 20260830110105 | 21 | 0 | 0.0 | 0.0 | 0.00 | 0.00 | 0.00 | 91 | 1022.3 |
| 20260830105554 | 22 | 0 | 0.0 | 0.0 | 0.00 | 0.00 | 0.00 | 91 | 1022.3 |
| 20260830105053 | 22 | 0 | 0.0 | 0.0 | 0.00 | 0.00 | 0.00 | 91 | 1022.3 |
| 20260830104609 | 22 | 0 | 0.0 | 0.0 | 0.00 | 0.00 | 0.00 | 91 | 1022.3 |
| 20260830104051 | 22 | 0 | 0.0 | 0.0 | 0.00 | 0.00 | 0.00 | 91 | 1022.1 |
| 20260830103549 | 22 | 0 | 0.0 | 0.0 | 0.00 | 0.00 | 0.00 | 91 | 1022.1 |
| 20260830103106 | 22 | 0 | 0.0 | 0.0 | 0.00 | 0.00 | 0.00 | 91 | 1022.1 |
| 20260830102551 | 22 | 0 | 0.0 | 0.0 | 0.00 | 0.00 | 0.00 | 90 | 1021.9 |
| 20260830102051 | 22 | 0 | 0.0 | 1.6 | 0.00 | 0.00 | 0.00 | 90 | 1022.0 |
| 20260830101607 | 22 | 0 | 0.0 | 1.6 | 0.00 | 0.00 | 0.00 | 90 | 1022.0 |
| 20260830101051 | 22 | 0 | 0.0 | 1.6 | 0.00 | 0.00 | 0.00 | 90 | 1022.0 |
| 20260830100552 | 22 | 0 | 0.0 | 0.0 | 0.00 | 0.00 | 0.00 | 91 | 1022.0 |
| 20260830100105 | 22 | 0 | 0.0 | 1.6 | 0.00 | 0.00 | 0.00 | 90 | 1022.0 |
| 20260830095551 | 22 | 0 | 0.0 | 1.6 | 0.00 | 0.00 | 0.00 | 90 | 1022.0 |
| 20260830095052 | 22 | 0 | 0.0 | 3.2 | 0.00 | 0.00 | 0.00 | 90 | 1022.1 |
| 20260830094633 | 22 | 0 | 0.0 | 3.2 | 0.00 | 0.00 | 0.00 | 90 | 1022.1 |
| 20260830094051 | 22 | 360 | 0.0 | 1.6 | 0.00 | 0.00 | 0.00 | 90 | 1022.1 |
| 20260830093550 | 22 | 360 | 0.0 | 0.0 | 0.00 | 0.00 | 0.00 | 90 | 1022.0 |
| 20260830093106 | 22 | 0 | 0.0 | 0.0 | 0.00 | 0.00 | 0.00 | 90 | 1022.0 |
| 20260830092551 | 22 | 0 | 0.0 | 0.0 | 0.00 | 0.00 | 0.00 | 90 | 1022.1 |
| 20260830092048 | 22 | 0 | 0.0 | 0.0 | 0.00 | 0.00 | 0.00 | 90 | 1022.0 |
| 20260830091606 | 22 | 0 | 0.0 | 1.6 | 0.00 | 0.00 | 0.00 | 90 | 1022.0 |
| 20260830091055 | 22 | 0 | 0.0 | 1.6 | 0.00 | 0.00 | 0.00 | 90 | 1022.0 |
| 20260830090548 | 22 | 0 | 0.0 | 3.2 | 0.00 | 0.00 | 0.00 | 89 | 1022.0 |
| 20260830090107 | 22 | 0 | 0.0 | 3.2 | 0.00 | 0.00 | 0.00 | 89 | 1022.0 |
| 20260830085551 | 22 | 0 | 1.6 | 3.2 | 0.00 | 0.00 | 0.00 | 89 | 1021.9 |
| 20260830085053 | 22 | 0 | 0.0 | 0.0 | 0.00 | 0.00 | 0.00 | 89 | 1022.0 |
| 20260830084610 | 22 | 0 | 0.0 | 0.0 | 0.00 | 0.00 | 0.00 | 89 | 1022.0 |
| 20260830084051 | 22 | 0 | 0.0 | 0.0 | 0.00 | 0.00 | 0.00 | 89 | 1021.8 |
| 20260830083550 | 22 | 0 | 0.0 | 0.0 | 0.00 | 0.00 | 0.00 | 89 | 1021.9 |
| 20260830083123 | 22 | 0 | 0.0 | 0.0 | 0.00 | 0.00 | 0.00 | 89 | 1021.8 |
| 20260830082548 | 22 | 0 | 0.0 | 0.0 | 0.00 | 0.00 | 0.00 | 88 | 1021.9 |
| 20260830082051 | 22 | 0 | 0.0 | 0.0 | 0.00 | 0.00 | 0.00 | 88 | 1021.8 |
| 20260830081606 | 22 | 0 | 0.0 | 1.6 | 0.00 | 0.00 | 0.00 | 88 | 1021.8 |
| 20260830081050 | 22 | 0 | 0.0 | 1.6 | 0.00 | 0.00 | 0.00 | 88 | 1021.8 |
| 20260830080551 | 22 | 0 | 0.0 | 0.0 | 0.00 | 0.00 | 0.00 | 88 | 1021.7 |
| 20260830080106 | 22 | 0 | 0.0 | 0.0 | 0.00 | 0.00 | 0.00 | 88 | 1021.7 |
| 20260830075552 | 22 | 0 | 0.0 | 0.0 | 0.00 | 0.00 | 0.00 | 88 | 1021.6 |
| 20260830075051 | 22 | 0 | 0.0 | 0.0 | 0.00 | 0.00 | 0.00 | 88 | 1021.6 |
| 20260830074607 | 23 | 0 | 0.0 | 0.0 | 0.00 | 0.00 | 0.00 | 88 | 1021.5 |
| 20260830074051 | 23 | 0 | 0.0 | 0.0 | 0.00 | 0.00 | 0.00 | 88 | 1021.5 |
| 20260830073552 | 23 | 0 | 0.0 | 0.0 | 0.00 | 0.00 | 0.00 | 88 | 1021.6 |
| 20260830073105 | 23 | 0 | 0.0 | 0.0 | 0.00 | 0.00 | 0.00 | 88 | 1021.6 |
| 20260830072552 | 23 | 0 | 0.0 | 0.0 | 0.00 | 0.00 | 0.00 | 88 | 1021.7 |
| 20260830072052 | 23 | 0 | 0.0 | 0.0 | 0.00 | 0.00 | 0.00 | 88 | 1021.7 |
| 20260830071622 | 23 | 0 | 0.0 | 0.0 | 0.00 | 0.00 | 0.00 | 88 | 1021.7 |
| 20260830071051 | 23 | 0 | 0.0 | 0.0 | 0.00 | 0.00 | 0.00 | 88 | 1021.6 |
| 20260830070552 | 23 | 0 | 0.0 | 1.6 | 0.00 | 0.00 | 0.00 | 88 | 1021.6 |
| 20260830070113 | 23 | 0 | 0.0 | 1.6 | 0.00 | 0.00 | 0.00 | 88 | 1021.6 |
| 20260830065552 | 23 | 0 | 0.0 | 3.2 | 0.00 | 0.00 | 0.00 | 87 | 1021.6 |
| 20260830065051 | 23 | 0 | 0.0 | 3.2 | 0.00 | 0.00 | 0.00 | 88 | 1021.6 |
| 20260830064607 | 23 | 0 | 0.0 | 3.2 | 0.00 | 0.00 | 0.00 | 87 | 1021.8 |
| 20260830064051 | 23 | 0 | 0.0 | 1.6 | 0.00 | 0.00 | 0.00 | 87 | 1021.7 |
| 20260830063549 | 23 | 0 | 0.0 | 1.6 | 0.00 | 0.00 | 0.00 | 87 | 1021.7 |
| 20260830063111 | 23 | 0 | 0.0 | 1.6 | 0.00 | 0.00 | 0.00 | 87 | 1021.7 |
| 20260830062551 | 23 | 0 | 0.0 | 1.6 | 0.00 | 0.00 | 0.00 | 87 | 1021.8 |
| 20260830062051 | 23 | 0 | 0.0 | 1.6 | 0.00 | 0.00 | 0.00 | 87 | 1021.7 |
| 20260830061607 | 23 | 0 | 0.0 | 1.6 | 0.00 | 0.00 | 0.00 | 87 | 1021.8 |
| 20260830061051 | 23 | 0 | 0.0 | 3.2 | 0.00 | 0.00 | 0.00 | 87 | 1021.8 |
| 20260830060551 | 23 | 0 | 0.0 | 3.2 | 0.00 | 0.00 | 0.00 | 86 | 1021.8 |
| 20260830060105 | 23 | 360 | 0.0 | 1.6 | 0.00 | 0.00 | 0.00 | 86 | 1021.8 |
| 20260830055551 | 23 | 0 | 0.0 | 0.0 | 0.00 | 0.00 | 0.00 | 86 | 1021.7 |
| 20260830055052 | 23 | 0 | 0.0 | 1.6 | 0.00 | 0.00 | 0.00 | 86 | 1021.8 |
| 20260830054606 | 23 | 0 | 0.0 | 3.2 | 0.00 | 0.00 | 0.00 | 86 | 1021.9 |
| 20260830054053 | 23 | 0 | 0.0 | 3.2 | 0.00 | 0.00 | 0.00 | 86 | 1021.9 |
| 20260830053556 | 23 | 0 | 0.0 | 0.0 | 0.00 | 0.00 | 0.00 | 86 | 1022.0 |
| 20260830053112 | 23 | 0 | 0.0 | 0.0 | 0.00 | 0.00 | 0.00 | 85 | 1022.0 |
| 20260830052554 | 23 | 0 | 0.0 | 0.0 | 0.00 | 0.00 | 0.00 | 85 | 1022.1 |
| 20260830052054 | 24 | 0 | 0.0 | 0.0 | 0.00 | 0.00 | 0.00 | 85 | 1021.9 |
| 20260830051605 | 24 | 0 | 0.0 | 0.0 | 0.00 | 0.00 | 0.00 | 85 | 1022.0 |
| 20260830051054 | 24 | 0 | 0.0 | 0.0 | 0.00 | 0.00 | 0.00 | 85 | 1022.0 |
| 20260830050554 | 24 | 0 | 0.0 | 0.0 | 0.00 | 0.00 | 0.00 | 85 | 1022.1 |
| 20260830050127 | 24 | 0 | 0.0 | 1.6 | 0.00 | 0.00 | 0.00 | 85 | 1022.0 |
| 20260830045552 | 24 | 0 | 0.0 | 3.2 | 0.00 | 0.00 | 0.00 | 85 | 1021.8 |
| 20260830045053 | 24 | 0 | 0.0 | 3.2 | 0.00 | 0.00 | 0.00 | 86 | 1021.9 |
| 20260830044613 | 24 | 0 | 0.0 | 0.0 | 0.00 | 0.00 | 0.00 | 85 | 1022.0 |
| 20260830044050 | 24 | 0 | 0.0 | 0.0 | 0.00 | 0.00 | 0.00 | 85 | 1022.0 |
| 20260830043554 | 24 | 0 | 0.0 | 0.0 | 0.00 | 0.00 | 0.00 | 85 | 1021.9 |
| 20260830043107 | 24 | 0 | 0.0 | 0.0 | 0.00 | 0.00 | 0.00 | 85 | 1021.9 |
| 20260830042553 | 24 | 0 | 0.0 | 0.0 | 0.00 | 0.00 | 0.00 | 84 | 1022.0 |
| 20260830042054 | 24 | 0 | 0.0 | 0.0 | 0.00 | 0.00 | 0.00 | 84 | 1022.0 |
| 20260830041640 | 24 | 0 | 0.0 | 0.0 | 0.00 | 0.00 | 0.00 | 84 | 1022.0 |
| 20260830041054 | 24 | 0 | 0.0 | 0.0 | 0.00 | 0.00 | 0.00 | 84 | 1022.1 |
| 20260830040553 | 24 | 0 | 0.0 | 0.0 | 0.00 | 0.00 | 0.00 | 83 | 1022.1 |
| 20260830040117 | 25 | 0 | 0.0 | 0.0 | 0.00 | 0.00 | 0.00 | 83 | 1022.1 |
| 20260830035554 | 25 | 0 | 0.0 | 0.0 | 0.00 | 0.00 | 0.00 | 83 | 1022.1 |
| 20260830035057 | 25 | 0 | 0.0 | 0.0 | 0.00 | 0.00 | 0.00 | 84 | 1022.0 |
| 20260830034607 | 25 | 0 | 0.0 | 0.0 | 0.00 | 0.00 | 0.00 | 83 | 1022.0 |
| 20260830034054 | 25 | 0 | 0.0 | 1.6 | 0.00 | 0.00 | 0.00 | 84 | 1022.1 |
| 20260830033552 | 25 | 0 | 0.0 | 1.6 | 0.00 | 0.00 | 0.00 | 83 | 1022.2 |
| 20260830033114 | 25 | 0 | 0.0 | 0.0 | 0.00 | 0.00 | 0.00 | 83 | 1022.1 |
| 20260830032553 | 25 | 0 | 0.0 | 0.0 | 0.00 | 0.00 | 0.00 | 83 | 1022.0 |
| 20260830032053 | 25 | 0 | 0.0 | 0.0 | 0.00 | 0.00 | 0.00 | 82 | 1022.1 |
| 20260830031617 | 25 | 0 | 0.0 | 0.0 | 0.00 | 0.00 | 0.00 | 82 | 1022.0 |
| 20260830031053 | 25 | 0 | 0.0 | 0.0 | 0.00 | 0.00 | 0.00 | 82 | 1021.9 |
| 20260830030553 | 25 | 0 | 0.0 | 0.0 | 0.00 | 0.00 | 0.00 | 82 | 1022.0 |
| 20260830030107 | 25 | 0 | 0.0 | 0.0 | 0.00 | 0.00 | 0.00 | 82 | 1021.9 |
| 20260830025552 | 25 | 0 | 0.0 | 0.0 | 0.00 | 0.00 | 0.00 | 82 | 1022.0 |
| 20260830025052 | 25 | 0 | 0.0 | 0.0 | 0.00 | 0.00 | 0.00 | 81 | 1021.9 |
| 20260830024610 | 25 | 0 | 0.0 | 0.0 | 0.00 | 0.00 | 0.00 | 81 | 1021.7 |
| 20260830024052 | 25 | 0 | 0.0 | 0.0 | 0.00 | 0.00 | 0.00 | 81 | 1021.6 |
| 20260830023557 | 25 | 0 | 0.0 | 0.0 | 0.00 | 0.00 | 0.00 | 80 | 1021.6 |
| 20260830023113 | 25 | 0 | 0.0 | 0.0 | 0.00 | 0.00 | 0.00 | 80 | 1021.5 |
| 20260830022556 | 25 | 0 | 0.0 | 0.0 | 0.00 | 0.00 | 0.00 | 80 | 1021.4 |
| 20260830022055 | 26 | 0 | 0.0 | 0.0 | 0.00 | 0.00 | 0.00 | 80 | 1021.3 |
| 20260830021606 | 26 | 0 | 0.0 | 0.0 | 0.00 | 0.00 | 0.00 | 81 | 1021.2 |
| 20260830021052 | 26 | 0 | 0.0 | 0.0 | 0.00 | 0.00 | 0.00 | 80 | 1021.3 |
| 20260830020556 | 26 | 0 | 0.0 | 0.0 | 0.00 | 0.00 | 0.00 | 80 | 1021.1 |
| 20260830020109 | 26 | 0 | 0.0 | 0.0 | 0.00 | 0.00 | 0.00 | 80 | 1021.0 |
| 20260830015553 | 26 | 0 | 0.0 | 0.0 | 0.00 | 0.00 | 0.00 | 80 | 1021.1 |
| 20260830015053 | 26 | 0 | 0.0 | 0.0 | 0.00 | 0.00 | 0.00 | 80 | 1021.0 |
| 20260830014612 | 26 | 0 | 0.0 | 0.0 | 0.00 | 0.00 | 0.00 | 80 | 1020.9 |
| 20260830014052 | 26 | 0 | 0.0 | 0.0 | 0.00 | 0.00 | 0.00 | 79 | 1020.8 |
| 20260830013553 | 26 | 0 | 0.0 | 0.0 | 0.00 | 0.00 | 0.00 | 79 | 1020.7 |
| 20260830013108 | 26 | 0 | 0.0 | 0.0 | 0.00 | 0.00 | 0.00 | 79 | 1020.6 |
| 20260830012553 | 26 | 0 | 0.0 | 0.0 | 0.00 | 0.00 | 0.00 | 78 | 1020.4 |
| 20260830012057 | 26 | 0 | 0.0 | 0.0 | 0.00 | 0.00 | 0.00 | 78 | 1020.5 |